FENGYUN 1C DEB

Satellite information

Favourite Embed

Satellite Type and Status

DEBRISIN ORBIT

Key statistics

Satellite FENGYUN 1C DEB at a glance.

Uptime

9496

Days in orbit

Revolutions

≈ 14.2

Per day

Orbit

SSO

Sun Synchronous Orbit

Inclination

98.9

Latest

Satellite identification and parameters

Extended collection of information and parameters for FENGYUN 1C DEB.

Object identification

Identified? True

Debris? True

Object name: FENGYUN 1C DEB

International designator: 1999-025AZW

Object number (NORAD): 30932

Object ID (CCSDS): 30932

Country: PEOPLES REPUBLIC OF CHINA (PRC)

Current information (Y/N): Y

RCS size: SMALL

Orbital parameters

Period: 101.122 minutes

Inclination: 98.905 deg

SMA: 7189.938 km

Apoapsis: 852.758 km

Periapsis: 770.848 km

RAAN: 57.924 deg

Eccentricy: 0.0056961

Argument of periapsis: 200.6657 deg

Mean anomaly: 159.2218 deg

Mean motion: 14.24016559 rev/day

Mean motion (dot): 0.00004777 rev/day2

B* drag term: 0.0020639 1/REarth

Two-line elements (TLE)

Creation date: May 9, 2025, 2:46 a.m.

Reference frame: TEME

Reference center: EARTH

Epoch: May 8, 2025, 5:44 a.m. UTC

TLE line 0: 0 FENGYUN 1C DEB

TLE line 1: 1 30932U 99025AZW 25128.23910516 .00004777 00000-0 20639-2 0 9994

TLE line 2: 2 30932 98.9050 57.9240 0056961 200.6657 159.2218 14.24016559932829

Live tracking on map

Real-time ground track for satellite FENGYUN 1C DEB.

In-orbit conjunctions

A list of the most updated potential collisions computed for object FENGYUN 1C DEB.

Target Orbit TCA Probability of collision Miss distance Type
COSMOS 2251 DEB LEO 2024-09-28 01:31:02 0.0001469368 277.0 (m) DEBRIS
COSMOS 1375 DEB LEO 2024-09-26 15:52:30 0.0004379409 973.0 (m) DEBRIS
CZ-6A DEB SSO 2024-09-26 15:05:48 0.0002056786 878.0 (m) DEBRIS

Associated space launch

Chinese polar orbiting meteorological satellite

FENGYUN 1C DEB was lifted into orbit during the mission ‘Long March 4B | Feng Yun 1C’, on board a Long March 4B space rocket.

The launch took place on May 10, 1999, 1:33 a.m. from Launch Complex 7.

For more information about the launch, click the button.

Launch to space Long March 4B | Feng Yun 1C
Long March 4B | Feng Yun 1C

Agency: N/A

Status: Launch Successful

Launch date: May 10, 1999, 1:33 a.m. UTC

Rocket: Long March 4B

Launch pad: Launch Complex 7

Location: Taiyuan Satellite Launch Center, People's Republic of China

...

Latest news about this satellite

There are no fresh news available about this satellite. Check back as we update our databases every day.


Newsletter sign-up

Weekly statistics, charts and insights to help you stay on top of the space industry.